Weather History for KOMK - July, 2014

Change the Weather History Date:

Sunday, July 13, 2014

  Actual Average Record
Temperature  
Mean Temperature 84 °F 72 °F  
Max Temperature 105 °F 88 °F 105 °F (2014)
Min Temperature 63 °F 57 °F 42 °F (1971)
Degree Days  
Heating Degree Days 0 0  
Month to date heating degree days 0 11  
Since 1 June heating degree days 38 80  
Since 1 July heating degree days 0 11  
Cooling Degree Days 19 8  
Month to date cooling degree days 183 84  
Year to date cooling degree days 262 191  
Since 1 June cooling degree days 248 168  
Growing Degree Days 34 (Base 50)    
Moisture  
Dew Point 39 °F    
Average Humidity 26    
Maximum Humidity 43    
Minimum Humidity 9    
Precipitation  
Precipitation 0.00 in 0.03 in 0.40 in (1998)
Month to date precipitation 0.00 0.40  
Year to date precipitation 5.22 8.15  
Sea Level Pressure  
Sea Level Pressure 30.00 in    
Wind  
Wind Speed 7 mph (WNW)    
Max Wind Speed 16 mph    
Max Gust Speed 20 mph    
Visibility 10 miles    
Events      
T = Trace of Precipitation, MM = Missing Value Source: NWS Daily Summary

Daily Weather History Graph

Daily Weather History Graph

Search for Another Location

Airport or City:

Trip Planner

Search our weather history database for the weather conditions in past years. The results will help you decide how hot, cold, wet, or windy it might be!

Date:

Astronomy

Jul. 13, 2014 Rise Set
Actual Time 5:10 AM PDT 8:56 PM PDT
Civil Twilight 4:30 AM PDT 9:36 PM PDT
Nautical Twilight 3:35 AM PDT 10:31 PM PDT
Astronomical Twilight 2:13 AM PDT 11:51 PM PDT
Moon 9:33 PM PDT (7/13) 6:58 AM PDT (7/13)
Length of Visible Light 17h 06m
Length of Day
15h 46m
Full, 97% of the Moon is Illuminated
Jul 13
Full
Jul 18
Last Quarter
Jul 26
New
Aug 3
First Quarter
Aug 10
Full

Hourly Weather History & Observations

Time (PDT) Temp. Dew Point Humidity Pressure Visibility Wind Dir Wind Speed Gust Speed Precip Events Conditions
12:53 AM 69.1 °F 37.9 °F 32% 30.04 in 10.0 mi WNW 5.8 mph - N/A   Clear
1:53 AM 68.0 °F 39.0 °F 35% 30.05 in 10.0 mi WNW 5.8 mph - N/A   Clear
2:53 AM 64.0 °F 41.0 °F 43% 30.06 in 10.0 mi NNW 5.8 mph - N/A   Clear
3:53 AM 69.1 °F 39.0 °F 33% 30.06 in 10.0 mi NNW 6.9 mph - N/A   Clear
4:53 AM 64.9 °F 39.9 °F 40% 30.06 in 10.0 mi NNW 6.9 mph - N/A   Clear
5:53 AM 68.0 °F 39.9 °F 36% 30.07 in 10.0 mi North 5.8 mph - N/A   Clear
6:53 AM 73.9 °F 39.9 °F 29% 30.08 in 10.0 mi North 10.4 mph - N/A   Clear
7:53 AM 80.1 °F 39.9 °F 24% 30.08 in 10.0 mi North 10.4 mph - N/A   Clear
8:53 AM 84.0 °F 42.1 °F 23% 30.08 in 10.0 mi North 10.4 mph - N/A   Clear
9:53 AM 89.1 °F 43.0 °F 20% 30.06 in 10.0 mi North 12.7 mph 18.4 mph N/A   Clear
10:53 AM 95.0 °F 43.0 °F 17% 30.04 in 10.0 mi North 10.4 mph - N/A   Clear
11:53 AM 99.0 °F 42.1 °F 14% 30.01 in 10.0 mi North 12.7 mph - N/A   Clear
12:53 PM 100.0 °F 36.0 °F 11% 30.00 in 10.0 mi SSE 3.5 mph - N/A   Clear
1:53 PM 102.9 °F 33.1 °F 9% 29.98 in 10.0 mi SSW 5.8 mph - N/A   Clear
2:53 PM 104.0 °F 34.0 °F 9% 29.96 in 10.0 mi NW 5.8 mph - N/A   Clear
3:53 PM 102.9 °F 34.0 °F 9% 29.94 in 10.0 mi Variable 3.5 mph - N/A   Clear
4:53 PM 102.0 °F 34.0 °F 9% 29.93 in 10.0 mi SSW 6.9 mph - N/A   Clear
5:53 PM 100.9 °F 39.0 °F 12% 29.91 in 10.0 mi SSW 6.9 mph - N/A   Clear
6:53 PM 99.0 °F 42.1 °F 14% 29.91 in 10.0 mi SSW 6.9 mph - N/A   Partly Cloudy
7:53 PM 93.0 °F 42.1 °F 17% 29.91 in 10.0 mi SSW 4.6 mph - N/A   Clear
8:53 PM 88.0 °F 42.1 °F 20% 29.92 in 10.0 mi SE 5.8 mph - N/A   Clear
9:53 PM 82.9 °F 39.9 °F 22% 29.93 in 10.0 mi West 6.9 mph - N/A   Clear
10:53 PM 84.0 °F 42.1 °F 23% 29.92 in 10.0 mi WSW 5.8 mph - N/A   Clear
11:53 PM 82.9 °F 42.1 °F 24% 29.93 in 10.0 mi SSW 6.9 mph - N/A   Clear